Regional Weather Roundup
Issued by NWS

Home | Current Version | Previous Version | Text Only | Print | Product List | Glossary Off
Versions: 1 2 3 4 5 6 7 8 9 10 11 12 13 14 15 16 17 18 19 20 21 22 23 24 25 26 27

000
ASUS45 KBOU 211507
RWRCO

WEATHER ROUNDUP FOR COLORADO
NATIONAL WEATHER SERVICE DENVER/BOULDER CO
900 AM MDT FRI JUL 21 2017

NOTE: "FAIR" INDICATES FEW OR NO CLOUDS BELOW 12000 FEET WITH NO
SIGNIFICANT WEATHER AND/OR OBSTRUCTIONS TO VISIBILITY.

COZ001>005-013-030-031-211600-
...NORTHWEST COLORADO...

CITY           SKY/WX    TMP DP  RH WIND       PRES   REMARKS
CRAIG          FAIR      73  49  42 E9        30.26R
HAYDEN         FAIR      70  46  43 E7        30.28R
MEEKER         FAIR      69  55  60 SE8       30.27R
RABBIT EARS PA FAIR      55  46  71 W5        30.57R
STEAMBOAT SPGS FAIR      65  50  59 S3        30.31R
WALDEN         FAIR      61  46  59 CALM      30.41R
$$

COZ006>008-011-211600-
...WEST CENTRAL VALLEYS...

CITY           SKY/WX    TMP DP  RH WIND       PRES   REMARKS
GRAND JUNCTION FAIR      76  55  48 E8        30.16R
MONTROSE       FAIR      71  53  52 SW5       30.24F
EAGLE          SUNNY     68  50  52 CALM      30.33S
RIFLE          FAIR      70  54  56 CALM      30.22S
DELTA          FAIR      75  51  42 CALM      30.21R
NUCLA          DRIZZLE   66  50  55 CALM      30.29R
$$

COZ017>023-064>068-211600-
...SOUTHWEST COLORADO...

CITY           SKY/WX    TMP DP  RH WIND       PRES   REMARKS
DURANGO        FAIR      69  50  50 SE5       30.31R
CORTEZ         FAIR      67  57  70 E6        30.26R
PAGOSA SPRINGS FAIR      67  47  49 CALM      30.38S
TELLURIDE      CLOUDY    58  51  77 CALM      30.48S
WOLF CREEK PAS FAIR      52  45  76 S5        30.72S
$$

COZ009-010-012-014-032>034-037-058>063-211600-
...CENTRAL COLORADO...

CITY           SKY/WX    TMP DP  RH WIND       PRES   REMARKS
ASPEN          FAIR      65  49  56 CALM      30.37S
BUENA VISTA    FAIR      66  46  49 CALM      30.40R
COPPER MTN     FAIR      55  43  62 W3        30.69R
BERTHOUD PASS  FAIR      45  32  61 NW23G30   30.69F
COTTONWOOD PAS FAIR      64  43  45 E3        30.53R
GUNNISON       FAIR      61  48  62 N3        30.40F
KREMMLING      FAIR      63  52  67 CALM      30.38S
LEADVILLE      FAIR      60  41  49 CALM      30.49R
MONARCH PASS   FAIR      52  43  71 SW10      30.79R
SALIDA         FAIR      67  50  53 NW6       30.43S
SUNLIGHT       FAIR      54  45  71 CALM      30.62R
WILKERSON PASS FAIR      57  37  47 CALM      30.66R
$$

COZ069>075-211600-
...SAN LUIS VALLEY/SANGRE DE CRISTO MOUNTAINS...

CITY           SKY/WX    TMP DP  RH WIND       PRES   REMARKS
ALAMOSA        FAIR      65  50  58 CALM      30.36S
DEL NORTE      FAIR      65  47  51 SW3       30.40S
LA VETA PASS   NOT AVBL
SAGUACHE         N/A    N/A N/A N/A MISG        N/A
$$

COZ035-036-038>040-211600-
...NORTHERN COLORADO FRONT RANGE...

CITY           SKY/WX    TMP DP  RH WIND       PRES   REMARKS
DENVER INTL AP FAIR      78  52  40 SW13      30.14S
DMNS CITY PARK   N/A     77  54  44 S7        30.14S
AURORA         MOSUNNY   76  54  46 SW12      30.17S
FRONT RANGE AP FAIR      79  52  38 SW10      30.16S
ERIE MUNI ARPT FAIR      81  47  29 S12       30.11S
BOULDER MUN AP FAIR      81  48  32 SE3       30.11F
CENTENNIAL     FAIR      76  50  40 SW8       30.18F
BROOMFIELD     MOSUNNY   81  48  32 S8        30.16F
FORT COLLINS   FAIR      77  55  46 SW6       30.11R
LONGMONT       FAIR      81  52  36 SW5       30.11F
$$

COZ041-046-047-076>085-087-088-211600-
...PIKES PEAK/PALMER DIVIDE AND SOUTHERN FOOTHILLS...

CITY           SKY/WX    TMP DP  RH WIND       PRES   REMARKS
COLO. SPRINGS  FAIR      80  51  36 N15       30.21R
A. F. ACADEMY  FAIR      76  50  39 N14       30.23R
SCHRIEVER AFB  FAIR      78  48  34 N10       30.21R
CHEYENNE MTN   FAIR      74  48  39 N12       30.21R
ELLICOTT       FAIR     N/A N/A N/A N10       30.19R
FALCON           N/A     76  47  35 N7        30.27S
FORT CARSON    FAIR      79  51  37 N10       30.18R
LIMON          FAIR      78  58  49 NW7       30.14S
MONUMENT HILL  FAIR      70  50  49 NW8       30.30S
CANON CITY     SUNNY     81  54  39 W16       30.15R
WALSENBURG     FAIR      84  48  28 W15       30.19S
TRINIDAD       FAIR      81  48  31 W12       30.17S
$$

COZ042>045-048>051-090-091-211600-
...NORTHEAST COLORADO...

CITY           SKY/WX    TMP DP  RH WIND       PRES   REMARKS
GREELEY ARPT   FAIR      78  57  48 W5        30.10R
AKRON          FAIR      82  53  36 W7        30.07R
BURLINGTON     FAIR      82  62  50 NW5       30.03R
WRAY           NOT AVBL
YUMA           FAIR      81  52  36 N3        30.02S
STERLING       FAIR      84  61  45 SW3       30.01S
HOLYOKE        FAIR      88  54  31 N6        29.98R
FORT MORGAN    FAIR      79  54  42 W8        30.08R
$$

COZ086-089-092>099-211600-
...SOUTHEAST COLORADO...

CITY           SKY/WX    TMP DP  RH WIND       PRES   REMARKS
PUEBLO         FAIR      85  51  31 E5        30.09S
LA JUNTA       FAIR      83  56  39 NW5       30.07R
LAMAR          FAIR      79  60  52 W8        30.00S
SPRINGFIELD      N/A     84  56  38 SW14      30.06S
$$




USA.gov is the U.S. government's official web portal to all federal, state and local government web resources and services.